WMT7JZ LROP-EGGP

Flight info

Callsign WMT7JZ
Flight time N/A
Altitude 34000
Route SOKRU DCT OXDOC DCT IRLOX DCT EMPOS DCT FOGRE DCT TEKVI DCT NAVEK/N0443F360 DCT VEXIL DCT KATCE DCT RKN DCT SPY DCT RAVLO Y70 POL
Aircraft A321/M-SDE3FGHIRWY/LB1

Departure

Time 2026-04-30 14:01
Airport Bucharest Henri Coandă International Airport (LROP)

Arrival

Time N/A
Airport Liverpool John Lennon Airport (EGGP)
Time Latitude Longitude Altitude Speed Heading
2026-04-30 13:36 44.56883 26.08810 322 ft 0 kts 173°
2026-04-30 13:50 44.56900 26.08808 321 ft 4 kts 182°
2026-04-30 13:51 44.56925 26.08815 319 ft 4 kts 216°
2026-04-30 13:51 44.56939 26.08841 322 ft 2 kts 263°
2026-04-30 13:51 44.56939 26.08843 322 ft 0 kts 264°
2026-04-30 13:56 44.56939 26.08835 322 ft 2 kts 264°
2026-04-30 13:57 44.56935 26.08795 322 ft 6 kts 264°
2026-04-30 13:57 44.56930 26.08721 322 ft 9 kts 264°
2026-04-30 13:57 44.56922 26.08616 322 ft 12 kts 264°
2026-04-30 13:57 44.56943 26.08548 322 ft 8 kts 345°
2026-04-30 13:58 44.57010 26.08538 322 ft 11 kts 354°
2026-04-30 13:58 44.57200 26.08510 322 ft 15 kts 354°
2026-04-30 13:58 44.57306 26.08494 322 ft 15 kts 354°
2026-04-30 13:59 44.57404 26.08480 323 ft 13 kts 354°
2026-04-30 13:59 44.57487 26.08468 323 ft 11 kts 354°
2026-04-30 13:59 44.57569 26.08457 323 ft 12 kts 354°
2026-04-30 13:59 44.57639 26.08447 323 ft 8 kts 356°
2026-04-30 14:00 44.57665 26.08488 323 ft 7 kts 83°
2026-04-30 14:00 44.57698 26.08909 320 ft 67 kts 84°
2026-04-30 14:00 44.57770 26.09857 323 ft 126 kts 84°
2026-04-30 14:01 44.57875 26.11302 405 ft 165 kts 81°
2026-04-30 14:01 44.57998 26.12852 1203 ft 157 kts 80°
2026-04-30 14:01 44.58115 26.14342 2032 ft 151 kts 79°
2026-04-30 14:01 44.58227 26.15798 2627 ft 151 kts 79°
2026-04-30 14:02 44.58355 26.17264 3184 ft 152 kts 79°
2026-04-30 14:02 44.58513 26.18725 3730 ft 153 kts 73°
2026-04-30 14:02 44.59168 26.19974 3937 ft 176 kts 34°
2026-04-30 14:02 44.60464 26.20228 4077 ft 212 kts 350°
2026-04-30 14:03 44.61797 26.19035 4202 ft 247 kts 319°
2026-04-30 14:03 44.62949 26.17083 4584 ft 268 kts 309°
2026-04-30 14:03 44.64016 26.14867 5352 ft 271 kts 307°
2026-04-30 14:03 44.65031 26.12672 6123 ft 273 kts 307°
2026-04-30 14:04 44.66089 26.10431 6869 ft 276 kts 308°
2026-04-30 14:04 44.67184 26.08193 7558 ft 279 kts 309°
2026-04-30 14:04 44.67931 26.06708 8011 ft 281 kts 308°
2026-04-30 14:04 44.69079 26.04465 8726 ft 284 kts 308°
2026-04-30 14:05 44.70251 26.02208 9457 ft 287 kts 307°
2026-04-30 14:05 44.71438 25.99935 10173 ft 289 kts 306°
2026-04-30 14:05 44.72650 25.97619 10597 ft 303 kts 305°
2026-04-30 14:05 44.74384 25.94306 10783 ft 332 kts 305°
2026-04-30 14:06 44.75325 25.92510 10989 ft 341 kts 305°
2026-04-30 14:06 44.78179 25.87055 12180 ft 350 kts 306°
2026-04-30 14:07 44.81068 25.81513 13564 ft 352 kts 306°
2026-04-30 14:07 44.82521 25.78725 14222 ft 354 kts 305°
2026-04-30 14:07 44.83964 25.75950 14813 ft 356 kts 304°
2026-04-30 14:08 44.86908 25.70282 16008 ft 360 kts 303°
2026-04-30 14:08 44.88394 25.67420 16581 ft 364 kts 304°
2026-04-30 14:08 44.91411 25.61598 17722 ft 370 kts 303°
2026-04-30 14:09 44.92936 25.58652 18288 ft 374 kts 303°
2026-04-30 14:09 44.94476 25.55670 18771 ft 378 kts 303°
2026-04-30 14:09 44.97573 25.49639 19836 ft 380 kts 302°
2026-04-30 14:10 44.99147 25.46575 20446 ft 380 kts 301°
2026-04-30 14:10 45.00687 25.43582 21018 ft 381 kts 301°
2026-04-30 14:10 45.02245 25.40558 21601 ft 381 kts 300°
2026-04-30 14:10 45.03805 25.37528 22175 ft 381 kts 300°
2026-04-30 14:11 45.05362 25.34500 22710 ft 381 kts 299°
2026-04-30 14:11 45.06917 25.31464 23241 ft 381 kts 299°
2026-04-30 14:11 45.08476 25.28415 23713 ft 383 kts 298°
2026-04-30 14:11 45.10040 25.25350 24138 ft 384 kts 298°
2026-04-30 14:12 45.11606 25.22278 24522 ft 386 kts 298°
2026-04-30 14:12 45.13177 25.19192 24897 ft 387 kts 298°
2026-04-30 14:12 45.14758 25.16085 25254 ft 389 kts 298°
2026-04-30 14:12 45.16341 25.12971 25621 ft 391 kts 298°
2026-04-30 14:13 45.17935 25.09835 25996 ft 393 kts 299°
2026-04-30 14:13 45.19543 25.06666 26304 ft 396 kts 299°
2026-04-30 14:13 45.21159 25.03471 26615 ft 398 kts 299°
2026-04-30 14:13 45.22778 25.00269 26930 ft 402 kts 300°
2026-04-30 14:14 45.24415 24.97035 27212 ft 405 kts 300°
2026-04-30 14:14 45.26061 24.93784 27519 ft 407 kts 300°
2026-04-30 14:14 45.27723 24.90496 27828 ft 410 kts 300°
2026-04-30 14:14 45.29386 24.87202 28149 ft 411 kts 300°
2026-04-30 14:15 45.31059 24.83881 28460 ft 413 kts 301°
2026-04-30 14:15 45.32738 24.80540 28787 ft 415 kts 300°
2026-04-30 14:15 45.34420 24.77190 29080 ft 417 kts 300°
2026-04-30 14:15 45.36111 24.73818 29345 ft 419 kts 302°
2026-04-30 14:16 45.37813 24.70425 29525 ft 423 kts 302°
2026-04-30 14:16 45.39511 24.67034 29734 ft 427 kts 302°
2026-04-30 14:16 45.41258 24.63540 30010 ft 429 kts 302°
2026-04-30 14:16 45.42971 24.60108 30294 ft 431 kts 302°
2026-04-30 14:17 45.44711 24.56616 30517 ft 433 kts 302°
2026-04-30 14:17 45.46454 24.53116 30844 ft 432 kts 302°
2026-04-30 14:17 45.48192 24.49621 31161 ft 431 kts 302°
2026-04-30 14:17 45.49925 24.46136 31492 ft 431 kts 302°
2026-04-30 14:18 45.51661 24.42642 31783 ft 431 kts 303°
2026-04-30 14:18 45.53397 24.39146 32011 ft 433 kts 304°
2026-04-30 14:18 45.56875 24.32123 32622 ft 433 kts 304°
2026-04-30 14:19 45.60346 24.25091 33141 ft 434 kts 304°
2026-04-30 14:19 45.62081 24.21570 33409 ft 434 kts 304°
2026-04-30 14:19 45.63814 24.18044 33690 ft 433 kts 304°
2026-04-30 14:20 45.65542 24.14522 33979 ft 432 kts 304°
2026-04-30 14:20 45.67269 24.11004 34212 ft 433 kts 304°
2026-04-30 14:20 45.70711 24.03987 34275 ft 428 kts 304°
2026-04-30 14:21 45.74125 23.97004 34273 ft 427 kts 304°
2026-04-30 14:22 45.79204 23.86575 34273 ft 427 kts 304°
2026-04-30 14:22 45.84300 23.76077 34273 ft 428 kts 304°
2026-04-30 14:23 45.91085 23.62045 34291 ft 428 kts 304°
2026-04-30 14:24 45.96169 23.51493 34269 ft 429 kts 305°
2026-04-30 14:25 46.02962 23.37302 34261 ft 432 kts 305°
2026-04-30 14:26 46.08067 23.26596 34268 ft 433 kts 305°
2026-04-30 14:27 46.13174 23.15840 34266 ft 434 kts 305°
2026-04-30 14:27 46.16575 23.08654 34271 ft 434 kts 305°
2026-04-30 14:28 46.21684 22.97842 34282 ft 434 kts 305°
2026-04-30 14:28 46.25084 22.90610 34281 ft 434 kts 306°
2026-04-30 14:29 46.31289 22.77378 34280 ft 434 kts 306°
2026-04-30 14:31 46.40298 22.58046 34272 ft 433 kts 306°
2026-04-30 14:31 46.45349 22.47165 34280 ft 433 kts 306°
2026-04-30 14:32 46.50364 22.36308 34275 ft 433 kts 306°
2026-04-30 14:33 46.53713 22.29038 34262 ft 433 kts 306°
2026-04-30 14:33 46.58756 22.18044 34272 ft 433 kts 306°
2026-04-30 14:34 46.62097 22.10745 34269 ft 433 kts 306°
2026-04-30 14:34 46.65425 22.03443 34278 ft 433 kts 306°
2026-04-30 14:35 46.70412 21.92465 34277 ft 433 kts 306°
2026-04-30 14:36 46.73733 21.85132 34289 ft 433 kts 306°
2026-04-30 14:36 46.77053 21.77787 34296 ft 433 kts 306°
2026-04-30 14:37 46.80368 21.70434 34299 ft 434 kts 306°
2026-04-30 14:37 46.83681 21.63079 34291 ft 434 kts 305°
2026-04-30 14:38 46.86985 21.55703 34286 ft 434 kts 305°
2026-04-30 14:38 46.90272 21.48361 34296 ft 433 kts 305°
2026-04-30 14:39 46.93569 21.40965 34309 ft 433 kts 305°
2026-04-30 14:39 46.96855 21.33571 34292 ft 433 kts 305°
2026-04-30 14:40 47.01789 21.22448 34303 ft 434 kts 305°
2026-04-30 14:40 47.04521 21.16272 34308 ft 434 kts 305°
2026-04-30 14:41 47.07799 21.08832 34318 ft 434 kts 304°
2026-04-30 14:41 47.11073 21.01384 34318 ft 434 kts 305°
2026-04-30 14:42 47.14352 20.93923 34319 ft 434 kts 305°
2026-04-30 14:42 47.17615 20.86447 34324 ft 435 kts 305°
2026-04-30 14:43 47.20881 20.78961 34327 ft 435 kts 305°
2026-04-30 14:43 47.24146 20.71455 34333 ft 435 kts 304°
2026-04-30 14:44 47.27400 20.63946 34335 ft 435 kts 304°
2026-04-30 14:44 47.30649 20.56418 34339 ft 435 kts 304°
2026-04-30 14:45 47.33893 20.48901 34346 ft 435 kts 304°
2026-04-30 14:45 47.37140 20.41364 34339 ft 435 kts 304°
2026-04-30 14:46 47.40379 20.33823 34331 ft 435 kts 304°
2026-04-30 14:46 47.43616 20.26260 34349 ft 435 kts 304°
2026-04-30 14:47 47.46828 20.18727 34349 ft 436 kts 304°
2026-04-30 14:47 47.50058 20.11145 34352 ft 435 kts 304°
2026-04-30 14:48 47.53390 20.03663 34363 ft 435 kts 306°
2026-04-30 14:48 47.56805 19.96264 34349 ft 435 kts 307°
2026-04-30 14:49 47.60203 19.88846 34353 ft 435 kts 306°
2026-04-30 14:49 47.63564 19.81374 34349 ft 435 kts 306°
2026-04-30 14:50 47.68587 19.70139 34347 ft 435 kts 306°
2026-04-30 14:51 47.73611 19.58903 34336 ft 435 kts 306°
2026-04-30 14:52 47.78621 19.47651 34340 ft 435 kts 306°
2026-04-30 14:52 47.83620 19.36362 34342 ft 435 kts 306°
2026-04-30 14:53 47.88612 19.25066 34342 ft 435 kts 306°
2026-04-30 14:54 47.95266 19.09934 34352 ft 436 kts 306°
2026-04-30 14:55 48.00233 18.98563 34325 ft 436 kts 307°
2026-04-30 14:56 48.06851 18.83366 34328 ft 437 kts 307°
2026-04-30 14:57 48.11810 18.71920 34343 ft 437 kts 307°
2026-04-30 14:58 48.18403 18.56618 34330 ft 437 kts 307°
2026-04-30 14:58 48.23269 18.45038 34339 ft 438 kts 306°
2026-04-30 15:00 48.31281 18.25579 34331 ft 438 kts 307°
2026-04-30 15:01 48.37668 18.10019 34352 ft 439 kts 307°
2026-04-30 15:01 48.42462 17.98284 34358 ft 439 kts 307°
2026-04-30 15:02 48.45655 17.90444 34330 ft 439 kts 307°
2026-04-30 15:03 48.53628 17.70772 34363 ft 440 kts 307°
2026-04-30 15:04 48.61568 17.50999 34359 ft 441 kts 308°
2026-04-30 15:06 48.69503 17.31124 34391 ft 442 kts 307°
2026-04-30 15:07 48.75831 17.15140 34403 ft 442 kts 307°
2026-04-30 15:08 48.82151 16.99113 34410 ft 443 kts 307°
2026-04-30 15:09 48.90020 16.79004 34360 ft 443 kts 308°
2026-04-30 15:10 48.96306 16.62829 34390 ft 444 kts 308°
2026-04-30 15:11 49.05675 16.38531 34364 ft 445 kts 308°
2026-04-30 15:13 49.13489 16.18120 34381 ft 445 kts 308°
2026-04-30 15:14 49.24369 15.89366 34400 ft 447 kts 308°
2026-04-30 15:17 49.37801 15.53492 34393 ft 450 kts 308°
2026-04-30 15:19 49.50209 15.19876 34425 ft 454 kts 308°